Theta_e
314 315 315 316 318 319 321 323 322 315 314 315 322 324 325 325 325 325 325 312 310 311 311 311 315 315 313 317 316 318 322 323 322 320 321 320 320 319 318 320 322 323 323 328 335
315 314 315 316 317 318 319 321 320 314 315 318 319 320 319 320 319 321 325 314 310 310 312 311 315 315 316 317 318 320 324 323 322 320 321 320 320 319 318 319 319 321 325 333 334
315 314 315 316 317 317 318 318 318 315 312 315 314 314 317 314 312 314 325 323 313 310 312 313 314 315 317 317 318 320 323 321 319 318 320 320 319 319 319 319 319 319 322 332 334
316 314 315 315 316 317 317 317 317 315 313 313 313 312 313 311 315 317 317 322 314 310 312 313 313 315 317 318 318 319 317 318 317 316 318 319 318 318 319 318 317 318 320 329 332
315 314 315 315 315 316 316 317 314 310 310 310 313 312 311 313 313 314 322 315 311 310 312 313 314 315 316 318 317 319 317 316 315 315 318 317 318 318 318 317 315 315 319 325 330
315 314 315 315 315 316 316 316 309 309 309 310 311 312 312 312 311 315 313 311 310 311 312 313 314 315 315 317 317 317 317 316 315 315 314 317 316 315 316 314 314 315 318 322 327
315 314 314 314 316 316 315 311 309 309 310 310 310 309 313 311 310 310 311 312 311 313 313 313 313 314 315 316 313 316 316 316 315 315 315 314 316 316 313 312 314 314 317 320 324
315 315 313 314 315 315 315 310 309 310 309 309 308 310 311 310 310 312 313 313 313 311 312 312 313 313 315 313 314 316 317 317 315 315 314 314 318 316 312 312 314 314 315 317 320
315 314 313 314 315 315 310 309 309 308 308 307 307 311 310 309 310 311 313 313 312 310 311 312 312 314 313 316 316 315 317 316 313 314 315 314 317 313 313 313 314 314 314 314 315
315 314 313 314 314 313 309 309 308 307 307 307 309 311 309 311 311 312 311 311 311 310 312 312 313 315 315 316 317 316 316 315 316 314 314 315 315 314 313 314 315 315 315 314 314
314 314 313 313 313 309 309 309 311 312 311 309 309 309 309 311 312 310 311 311 312 312 313 313 315 315 314 315 316 316 315 314 314 313 315 315 315 315 314 314 315 315 315 314 313
314 313 312 313 312 309 310 310 309 309 311 310 309 309 309 311 311 310 311 312 312 313 314 313 314 315 315 313 313 315 314 314 313 313 314 315 315 315 314 314 313 313 313 312 312
314 313 313 312 310 309 313 311 309 308 309 310 308 309 311 311 312 311 311 312 312 313 313 313 313 313 312 312 313 313 314 314 314 312 312 313 314 315 311 312 312 312 311 311 312
313 313 313 311 310 311 313 310 308 308 309 310 311 309 311 311 312 311 311 312 312 313 313 313 309 312 313 313 313 313 313 314 314 314 313 312 313 315 313 313 314 314 313 313 312
314 312 312 309 311 312 311 309 308 309 312 311 312 310 311 311 311 311 310 310 312 312 312 311 310 311 313 313 313 313 313 314 315 315 314 314 313 315 312 314 314 314 313 312 312
313 312 310 310 312 310 310 309 311 312 314 313 311 311 311 310 311 310 311 310 310 311 312 311 308 311 312 310 312 311 313 313 314 315 313 314 313 314 312 314 314 313 312 312 311
312 311 309 310 313 310 309 312 316 319 311 314 312 311 311 311 312 312 311 311 311 311 311 311 310 310 310 311 311 313 313 313 313 314 313 310 312 313 311 314 314 313 312 311 312
312 311 310 311 312 308 310 315 317 312 311 313 312 311 311 311 312 312 312 312 312 312 312 312 312 311 311 312 312 313 313 315 315 315 313 308 312 313 312 313 314 312 312 312 311
312 312 311 311 312 311 312 315 315 312 312 314 312 312 311 311 312 312 312 313 312 312 312 312 313 310 310 311 313 313 312 312 311 308 315 312 312 311 309 312 312 312 311 312 312
307 311 312 311 314 314 315 314 312 311 313 312 312 312 313 312 312 312 312 312 313 311 310 312 313 310 309 310 310 311 311 311 313 319 319 312 313 313 310 312 312 311 312 312 311
304 309 308 312 313 314 315 313 311 311 313 312 313 311 312 312 311 312 312 312 313 311 310 311 314 311 310 311 312 310 311 311 312 314 319 315 313 312 312 313 313 312 313 312 311
301 304 305 311 312 312 313 312 312 313 313 314 314 313 312 312 311 312 313 312 312 310 310 312 313 313 311 309 309 311 312 311 313 313 311 314 315 311 313 312 313 313 312 311 310
300 300 303 307 311 311 312 312 312 314 313 314 315 314 312 312 312 311 312 310 308 310 311 312 315 316 312 311 309 310 310 312 312 316 318 318 313 309 311 312 313 312 312 311 309
300 303 300 302 300 310 312 313 313 313 314 314 315 313 313 312 313 312 313 312 310 309 310 311 314 314 313 312 313 312 312 311 312 313 313 313 312 311 313 313 313 311 311 310 309
298 300 300 305 303 303 307 311 313 313 314 314 314 315 315 314 314 313 314 312 311 310 310 312 315 312 312 312 312 313 312 311 311 311 312 312 311 313 312 313 312 311 311 310 308
298 298 298 299 300 304 304 306 313 313 314 315 315 315 315 315 315 315 313 313 313 311 311 311 316 313 314 312 312 312 312 311 310 311 311 311 312 312 312 312 312 311 310 309 308
297 297 299 299 302 303 306 306 306 309 313 312 314 315 315 314 314 314 313 313 313 313 313 313 312 315 316 312 314 315 313 312 311 311 312 312 312 311 312 312 311 310 310 309 307
Wind_Speed
21 22 25 27 27 28 30 23 19 17 11 9 17 23 33 36 31 30 42 10 6 3 7 8 8 9 10 5 8 5 6 7 8 8 9 15 10 6 4 6 5 3 4 8 17
21 22 24 26 27 28 30 27 23 20 13 12 12 20 26 23 21 28 42 20 9 10 8 12 10 10 8 5 5 6 6 9 5 3 11 16 10 11 8 8 7 7 6 13 18
21 22 23 26 26 27 28 28 27 27 19 13 10 16 21 15 9 21 43 30 13 15 12 11 11 13 14 9 8 7 9 6 5 4 10 14 8 9 7 7 7 11 12 14 17
22 23 25 26 25 24 28 28 28 29 28 18 16 13 14 13 6 13 31 33 24 20 16 13 12 12 11 10 10 9 2 3 5 4 7 13 11 7 7 7 7 7 13 15 18
23 25 26 24 25 24 26 26 26 26 27 29 24 18 19 13 13 4 31 29 23 23 21 19 18 17 9 10 10 7 8 5 7 7 7 7 6 3 7 6 7 8 11 13 15
24 25 26 25 24 23 24 24 25 25 24 25 25 22 15 16 13 18 10 23 24 24 21 21 16 20 9 8 13 6 10 10 7 8 4 6 3 0 3 5 7 8 8 12 14
26 24 25 28 26 25 24 24 24 23 20 20 21 23 13 14 6 16 19 18 24 23 19 20 11 16 8 9 4 15 7 6 6 6 3 1 3 7 6 5 5 8 10 10 13
28 26 24 28 27 26 23 24 23 20 19 19 20 18 11 15 18 11 18 20 21 19 17 21 17 12 4 11 8 7 8 8 6 6 3 3 5 8 3 8 8 8 10 9 10
30 27 24 28 26 25 24 23 22 20 19 18 19 11 8 10 20 18 19 18 19 20 17 18 13 9 7 13 8 8 10 14 6 6 4 7 5 6 3 5 8 9 8 8 9
33 30 25 28 27 25 25 23 22 20 18 17 9 8 10 9 20 19 19 16 15 17 13 11 10 9 11 15 18 13 15 9 12 8 6 8 10 5 6 4 7 6 6 7 7
35 30 27 29 29 30 31 29 19 9 19 10 9 6 7 14 18 18 21 20 13 19 12 17 11 18 18 16 11 16 14 10 8 3 6 12 10 9 6 5 8 7 5 5 5
34 29 30 30 31 33 31 19 26 10 11 7 6 14 9 13 8 18 23 14 16 17 16 7 17 17 16 8 6 10 14 9 5 3 4 5 11 10 3 5 3 5 6 4 3
36 33 33 32 31 32 27 21 23 24 8 7 5 14 8 13 6 20 24 9 17 19 15 16 13 10 8 10 12 10 14 12 4 6 1 2 8 12 4 5 3 2 3 3 4
37 35 32 32 29 29 26 20 22 17 6 8 6 8 10 8 4 16 22 10 9 19 17 10 5 11 13 16 14 9 2 10 11 11 5 3 4 8 8 6 5 5 5 5 7
36 32 35 39 19 31 25 22 22 10 7 12 7 9 13 6 12 12 17 5 12 13 9 6 9 13 15 16 10 4 8 9 9 5 1 6 5 5 8 8 6 7 8 8 9
32 29 36 33 22 30 23 21 19 5 8 8 9 10 9 6 5 11 8 4 6 6 4 5 2 7 3 6 1 16 12 10 6 3 5 10 8 8 8 11 11 11 11 10 10
35 32 37 30 20 30 29 21 6 6 10 10 8 11 19 8 7 12 17 12 10 10 12 4 7 2 7 10 8 10 15 5 6 5 5 3 4 4 7 6 13 17 16 13 12
36 34 35 26 21 30 31 10 8 14 15 5 8 15 15 13 6 10 17 17 11 10 14 13 7 11 10 9 9 14 16 6 7 6 6 3 7 2 8 8 16 17 18 15 12
34 36 35 29 23 31 24 14 11 16 11 12 15 16 13 7 6 10 19 21 18 13 10 14 7 3 3 1 11 12 8 4 6 1 2 6 5 4 8 11 17 18 17 16 14
16 32 31 32 24 32 14 13 15 3 14 16 13 16 23 18 12 16 18 16 14 12 3 7 5 1 2 3 1 8 12 4 3 6 4 7 8 7 15 18 17 19 21 18 15
5 14 18 34 27 20 16 17 13 6 13 15 11 15 19 19 18 15 16 6 22 13 5 8 4 4 4 9 13 4 6 5 4 3 4 4 5 3 20 22 22 25 24 21 18
3 3 12 29 7 11 14 20 9 9 6 5 7 4 16 17 12 12 14 11 23 18 13 2 5 5 7 4 2 5 10 13 5 5 2 2 3 4 8 23 27 26 24 21 19
4 4 13 21 10 9 11 21 11 8 9 6 8 3 2 13 9 11 7 3 4 10 15 9 5 5 1 2 2 7 9 12 8 3 5 5 5 4 6 19 25 27 25 23 19
4 2 3 5 2 9 10 19 15 7 7 4 4 4 8 6 3 12 9 2 4 2 1 8 3 9 12 10 9 10 17 15 15 6 10 9 9 6 11 16 23 26 27 25 23
3 2 1 3 1 2 3 7 18 12 7 9 2 8 9 5 8 7 7 5 3 4 4 3 6 8 14 2 3 8 14 15 16 23 13 21 16 11 18 20 31 29 27 26 25
5 3 2 2 2 4 4 4 25 21 15 9 8 14 11 7 12 11 11 7 6 4 8 3 3 6 2 2 0 2 8 17 20 23 20 19 15 8 23 24 25 28 30 30 27
5 7 4 4 3 2 1 2 2 7 15 8 9 6 10 2 2 8 12 12 10 11 11 9 6 4 4 5 3 4 16 16 15 20 19 21 24 8 14 23 29 32 33 32 30
Wind_Direction
211 209 202 201 199 201 210 206 204 196 189 199 198 205 201 206 211 206 211 203 249 217 188 217 220 205 192 209 206 242 211 213 184 197 144 158 163 162 146 135 133 128 76 119 159
202 210 201 198 198 200 202 203 199 194 178 187 191 185 183 173 192 215 203 202 248 240 214 207 208 194 195 196 210 232 223 205 159 111 157 169 184 157 162 149 158 147 116 144 157
198 203 199 195 196 196 198 198 199 198 187 185 168 165 171 157 195 231 204 207 244 242 208 212 215 199 203 198 211 206 211 114 139 100 148 162 165 162 166 177 163 179 168 163 170
199 200 199 199 199 197 194 200 200 199 199 186 168 174 155 150 169 217 208 206 229 240 211 204 194 194 211 201 198 183 97 128 133 116 156 167 152 170 192 94 116 133 173 174 182
199 197 198 199 196 197 192 194 194 194 197 194 194 186 177 195 234 177 179 224 232 219 204 203 188 198 221 198 190 212 138 112 120 129 154 138 174 113 185 147 136 144 165 182 192
195 194 200 196 194 194 192 193 190 192 196 198 201 191 178 217 231 201 250 221 211 202 204 210 197 191 234 202 199 144 138 124 133 134 127 176 155 201 139 173 202 193 173 189 198
195 193 206 191 193 190 191 188 187 187 191 197 195 188 216 218 247 192 242 211 197 199 205 205 201 187 199 158 142 146 115 141 154 138 121 166 211 215 140 144 160 203 189 189 197
193 192 210 192 188 187 186 183 181 179 180 189 188 185 228 230 227 209 215 201 197 195 209 208 201 193 224 129 127 160 174 181 151 175 139 212 239 137 178 202 202 184 197 199 204
194 194 204 191 184 184 177 175 173 168 173 181 182 176 228 223 220 221 201 197 193 198 204 196 183 188 151 178 166 196 198 211 147 202 142 214 245 125 146 176 188 184 181 199 210
194 191 203 189 184 174 168 165 162 160 163 167 186 199 225 210 202 199 190 185 174 180 165 175 184 185 207 199 201 184 216 202 203 177 202 196 235 144 162 177 181 180 183 190 198
188 187 199 186 182 171 162 149 139 159 178 174 197 220 161 182 181 180 181 172 164 180 182 192 197 202 197 212 233 196 206 198 188 119 211 220 240 212 185 226 217 228 219 222 211
187 184 194 188 178 172 166 173 172 187 177 218 245 212 179 152 154 171 172 170 183 187 189 175 213 203 203 165 173 176 193 188 97 139 206 207 241 233 178 226 221 250 248 233 213
185 184 187 183 174 171 179 190 179 154 157 186 193 200 171 169 173 170 177 194 188 190 193 199 198 129 143 170 173 189 194 179 177 147 169 241 242 187 170 158 170 162 218 212 167
182 181 185 175 173 179 188 190 166 169 154 167 194 196 178 167 162 173 179 176 195 193 196 230 137 176 189 193 195 185 167 147 141 172 205 207 242 180 168 189 170 144 155 151 133
178 184 184 175 175 182 188 181 170 174 196 154 152 173 166 178 132 178 180 165 174 168 191 160 158 177 191 192 201 144 150 138 153 185 219 193 249 142 167 198 180 148 132 135 123
175 182 178 171 172 180 182 172 162 197 220 165 145 166 153 169 149 144 167 148 120 151 144 101 9 195 146 82 192 138 118 98 113 173 238 214 228 207 176 203 164 147 139 135 126
165 171 175 173 176 177 170 156 165 208 140 168 180 174 177 165 153 185 185 172 168 161 185 124 155 125 155 100 138 169 157 151 195 196 233 54 216 242 126 166 175 156 148 144 131
163 166 177 179 180 176 167 182 207 189 186 137 164 160 181 155 179 182 186 194 217 229 173 180 200 180 176 204 176 192 186 170 188 196 188 87 229 218 124 156 149 148 146 145 138
162 172 179 180 175 175 173 196 198 185 156 149 146 170 183 186 140 169 199 200 195 204 176 191 160 116 178 115 169 179 201 72 105 18 161 185 226 181 164 161 156 156 156 152 147
147 164 183 183 179 177 196 205 198 180 141 158 172 187 192 183 164 189 187 209 199 198 320 205 132 200 108 138 115 215 146 154 216 162 215 188 240 241 185 179 172 169 169 162 156
106 143 167 189 186 183 204 194 196 162 170 174 176 184 195 184 199 191 188 199 193 180 201 169 106 136 174 206 181 162 186 212 225 236 214 187 236 337 190 184 179 177 173 169 164
81 142 139 174 177 200 207 193 183 163 206 204 174 143 186 180 192 198 207 208 196 169 177 153 106 149 188 74 11 262 217 197 202 194 290 44 255 333 208 185 180 175 170 172 169
63 43 187 176 193 195 198 211 205 170 189 183 193 151 146 171 182 200 188 69 157 185 182 178 151 105 80 251 178 217 201 220 220 60 193 186 232 329 213 172 176 171 173 172 168
118 177 35 205 81 214 185 204 196 210 199 181 145 127 133 172 186 190 163 143 179 198 46 147 127 198 206 211 154 200 202 199 205 201 213 225 218 163 175 172 175 176 178 175 173
91 82 73 137 230 110 160 213 198 185 206 185 187 214 168 147 171 181 158 138 133 181 156 148 206 211 232 32 244 203 198 193 204 221 211 236 232 205 187 184 191 184 178 175 175
134 145 114 65 117 168 151 202 213 199 167 201 229 197 210 179 191 177 160 169 170 164 178 169 204 213 48 108 182 238 222 193 209 227 233 248 252 278 184 194 183 184 180 182 181
150 143 132 142 169 148 140 118 192 270 209 230 210 193 210 225 122 176 160 163 162 159 181 166 143 140 208 120 85 284 226 201 214 223 220 232 238 152 179 188 188 189 188 184 180